English version Home page |
Updated on February 11, 2007 |
|
軌道要素Epoch 2005 July 9.0 TT = JDT 2453560.5 T 2005 July 5.09798 TT MPC q 3.3992544 (2000.0) P Q z +0.0004847 Peri. 97.75332 -0.59799290 -0.76428953 +/-0.0000012 Node 326.92707 -0.79001716 +0.61285808 e 0.9983525 Incl. 153.74720 +0.13519383 +0.20066511 >From 301 observations 2004 May 2-2005 Mar. 28, mean residual 0".56.
|
星図
|
光度変化m1 = 6.5 + 5 logΔ + 12.0 log r
|
軌道要素はM.P.E.C. 2005-G29に掲載されたものです。
|